EW4096 Weather Reports


time (UTC)temp
C
wind
direction
speed
KPH
gust
KPH
rain 1hr
cm
rain 24hr
cm
rain mn
cm
humidity
%
barometer
mb
20260504140928 16 194 0.0 0.0 0.00 0.00 0.00 45 1012.5
20260504140428 16 144 0.0 0.0 0.00 0.00 0.00 51 1012.4
20260504130423 13 258 0.0 0.0 0.00 0.00 0.00 51 1012.7
20260504110412 8 30 0.0 0.0 0.00 0.00 0.00 74 1013.4
20260504100410 7 147 0.0 0.0 0.00 0.00 0.00 77 1013.4
20260504081857 6 300 0.0 0.0 0.00 0.00 0.00 79 1013.7
20260504081402 6 300 0.0 0.0 0.00 0.00 0.00 78 1013.8
20260504081358 6 300 0.0 0.0 0.00 0.00 0.00 79 1013.7
20260504080357 6 300 0.0 0.0 0.00 0.00 0.00 78 1013.8
20260504070353 6 300 0.0 0.0 0.00 0.00 0.00 75 1013.8
20260504050349 6 300 0.0 0.0 0.00 0.00 0.00 71 1014.4
20260504045846 6 300 0.0 0.0 0.00 0.00 0.00 70 1014.4
20260504045350 6 300 0.0 0.0 0.00 0.00 0.00 70 1014.4
20260504045346 6 300 0.0 0.0 0.00 0.00 0.00 70 1014.4
20260504044346 6 300 0.0 0.0 0.00 0.00 0.00 69 1014.4
20260504043844 6 300 0.0 0.0 0.00 0.00 0.00 67 1014.3
20260504043344 7 300 0.0 0.0 0.00 0.00 0.00 67 1014.2
20260504042844 7 300 0.0 0.0 0.00 0.00 0.00 67 1014.1
20260504042342 7 300 0.0 0.0 0.00 0.00 0.00 66 1014.2
20260504041841 7 300 0.0 0.0 0.00 0.00 0.00 64 1014.2
20260504041346 7 300 0.0 0.0 0.00 0.00 0.00 66 1014.1
20260504041342 7 300 0.0 0.0 0.00 0.00 0.00 64 1014.2
20260504040842 7 300 0.0 0.0 0.00 0.00 0.00 65 1014.2
20260504040446 7 300 0.0 0.0 0.00 0.00 0.00 67 1014.0
20260504035341 7 300 0.0 0.0 0.00 0.00 0.00 66 1014.0
20260504034840 7 300 0.0 0.0 0.00 0.00 0.00 67 1014.0
20260504034340 7 300 0.0 0.0 0.00 0.00 0.00 67 1014.0
20260504033838 7 338 0.0 0.0 0.00 0.00 0.00 67 1013.9
20260504033338 7 341 0.0 0.0 0.00 0.00 0.00 68 1014.0
20260504032836 7 342 0.0 0.0 0.00 0.00 0.00 67 1013.9
20260504032335 6 342 0.0 0.0 0.00 0.00 0.00 69 1013.9
20260504031834 6 342 0.0 0.0 0.00 0.00 0.00 70 1013.9
20260504031333 6 342 0.0 0.0 0.00 0.00 0.00 69 1013.9
20260504030833 6 342 0.0 0.0 0.00 0.00 0.00 70 1013.8
20260504030332 6 342 0.0 0.0 0.00 0.00 0.00 71 1013.8
20260504025831 6 342 0.0 0.0 0.00 0.00 0.00 71 1013.8
20260504025329 6 342 0.0 0.0 0.00 0.00 0.00 71 1013.7
20260504024834 7 342 0.0 0.0 0.00 0.00 0.00 69 1013.8
20260504024830 7 342 0.0 0.0 0.00 0.00 0.00 70 1013.8
20260504023830 7 342 0.0 0.0 0.00 0.00 0.00 69 1013.8
20260504023330 7 342 0.0 0.0 0.00 0.00 0.00 68 1013.8
20260504022829 7 342 0.0 0.0 0.00 0.00 0.00 69 1013.8
20260504022334 7 342 0.0 0.0 0.00 0.00 0.00 69 1013.7
20260504022330 7 342 0.0 0.0 0.00 0.00 0.00 69 1013.7
20260504021829 7 342 0.0 0.0 0.00 0.00 0.00 69 1013.7
20260504020830 7 342 0.0 0.0 0.00 0.00 0.00 69 1013.6
20260504020329 7 342 0.0 0.0 0.00 0.00 0.00 69 1013.6
20260504015830 7 342 0.0 0.0 0.00 0.00 0.00 68 1013.6
20260504015333 7 342 0.0 0.0 0.00 0.00 0.00 67 1013.5
20260504015329 7 342 0.0 0.0 0.00 0.00 0.00 68 1013.6
20260504014334 7 342 0.0 0.0 0.00 0.00 0.00 66 1013.5
20260504014330 7 342 0.0 0.0 0.00 0.00 0.00 67 1013.5
20260504013330 7 342 0.0 0.0 0.00 0.00 0.00 67 1013.5
20260504012829 7 342 0.0 0.0 0.00 0.00 0.00 66 1013.3
20260504012329 7 342 0.0 0.0 0.00 0.00 0.00 66 1013.4
20260504011830 8 342 0.0 0.0 0.00 0.00 0.00 66 1013.3
20260504011333 8 342 0.0 0.0 0.00 0.00 0.00 65 1013.2
20260504011329 8 342 0.0 0.0 0.00 0.00 0.00 65 1013.2
20260504010330 8 342 0.0 0.0 0.00 0.00 0.00 64 1013.2
20260504005829 8 342 0.0 0.0 0.00 0.00 0.00 62 1013.2
20260504005328 9 342 0.0 0.0 0.00 0.00 0.00 61 1013.2
20260504004825 9 342 0.0 0.0 0.00 0.00 0.00 60 1013.2
20260504004327 10 342 0.0 0.0 0.00 0.00 0.00 59 1013.1
20260504004323 10 342 0.0 0.0 0.00 0.00 0.00 60 1013.1
20260504003928 10 342 0.0 0.0 0.00 0.00 0.00 56 1013.1
20260504002824 11 342 0.0 0.0 0.00 0.00 0.00 55 1013.1
20260504002323 11 342 0.0 0.0 0.00 0.00 0.00 53 1013.0
20260504001821 12 342 0.0 0.0 0.00 0.00 0.00 50 1012.9
20260504001322 12 22 0.0 0.0 0.00 0.00 0.00 48 1012.9
20260504000820 12 22 0.0 0.0 0.00 0.00 0.00 45 1012.9
20260504000319 13 22 0.0 0.0 0.00 0.00 0.00 43 1012.8
20260503235819 13 22 0.0 0.0 0.00 0.00 0.00 42 1012.8
20260503235319 14 22 0.0 0.0 0.00 0.00 0.00 40 1012.8
20260503234819 14 22 0.0 0.0 0.00 0.00 0.00 37 1012.7
20260503234320 15 22 0.0 0.0 0.00 0.00 0.00 36 1012.6
20260503233817 15 22 0.0 0.0 0.00 0.00 0.00 35 1012.6
20260503233317 15 255 0.0 0.0 0.00 0.00 0.00 34 1012.5
20260503232818 15 255 0.0 0.0 0.00 0.00 0.00 35 1012.5
20260503232317 15 245 0.0 0.0 0.00 0.00 0.00 34 1012.5
20260503231817 15 244 0.0 0.0 0.00 0.00 0.00 33 1012.5
20260503231316 16 261 0.0 1.6 0.00 0.00 0.00 33 1012.6
20260503230815 16 244 0.0 1.6 0.00 0.00 0.00 32 1012.4
20260503230319 16 194 0.0 0.0 0.00 0.00 0.00 32 1012.3
20260503230315 16 248 0.0 0.0 0.00 0.00 0.00 35 1012.3
20260503225320 16 272 0.0 0.0 0.00 0.00 0.00 32 1012.3
20260503225316 16 250 0.0 0.0 0.00 0.00 0.00 33 1012.3
20260503224919 16 5 0.0 0.0 0.00 0.00 0.00 33 1012.4
20260503224419 16 305 0.0 0.0 0.00 0.00 0.00 32 1012.3
20260503223313 16 0 0.0 0.0 0.00 0.00 0.00 33 1012.3
20260503222814 16 311 0.0 0.0 0.00 0.00 0.00 33 1012.5
20260503222317 16 287 0.0 0.0 0.00 0.00 0.00 32 1012.5
20260503222313 16 254 0.0 0.0 0.00 0.00 0.00 33 1012.5
20260503221317 16 5 0.0 0.0 0.00 0.00 0.00 32 1012.5
20260503221313 16 5 0.0 0.0 0.00 0.00 0.00 32 1012.5
20260503220917 16 237 0.0 1.6 0.00 0.00 0.00 32 1012.6
20260503215813 16 260 0.0 1.6 0.00 0.00 0.00 33 1012.6
20260503215313 16 302 0.0 4.8 0.00 0.00 0.00 34 1012.6
20260503214812 16 188 0.0 4.8 0.00 0.00 0.00 32 1012.6
20260503214311 16 304 0.0 0.0 0.00 0.00 0.00 32 1012.5
20260503213811 16 5 0.0 0.0 0.00 0.00 0.00 33 1012.6
20260503213310 16 280 0.0 0.0 0.00 0.00 0.00 34 1012.6
20260503212811 16 303 0.0 1.6 0.00 0.00 0.00 33 1012.6
20260503212311 16 344 0.0 1.6 0.00 0.00 0.00 34 1012.6
20260503211817 16 0 0.0 0.0 0.00 0.00 0.00 33 1012.6
20260503211811 16 244 0.0 0.0 0.00 0.00 0.00 34 1012.5
20260503211311 16 274 0.0 0.0 0.00 0.00 0.00 34 1012.6
20260503210311 17 263 0.0 0.0 0.00 0.00 0.00 31 1012.5
20260503205811 17 259 0.0 0.0 0.00 0.00 0.00 32 1012.6
20260503205309 17 246 0.0 0.0 0.00 0.00 0.00 33 1012.6
20260503204808 16 272 0.0 0.0 0.00 0.00 0.00 33 1012.5
20260503204309 16 303 0.0 1.6 0.00 0.00 0.00 34 1012.6
20260503203809 16 305 0.0 1.6 0.00 0.00 0.00 35 1012.6
20260503203308 16 259 0.0 0.0 0.00 0.00 0.00 33 1012.6
20260503202811 16 208 0.0 0.0 0.00 0.00 0.00 37 1012.7
20260503202807 16 344 0.0 0.0 0.00 0.00 0.00 31 1012.7
20260503201811 16 272 0.0 0.0 0.00 0.00 0.00 34 1012.8
20260503201807 16 279 0.0 0.0 0.00 0.00 0.00 33 1012.7
20260503201411 16 317 0.0 1.6 0.00 0.00 0.00 34 1013.0
20260503200303 16 42 0.0 1.6 0.00 0.00 0.00 36 1013.0
20260503195803 16 269 0.0 0.0 0.00 0.00 0.00 33 1013.1
20260503195307 16 5 0.0 0.0 0.00 0.00 0.00 33 1013.2
20260503195304 16 290 0.0 0.0 0.00 0.00 0.00 38 1013.1
20260503194303 16 284 0.0 0.0 0.00 0.00 0.00 33 1013.1
20260503193803 16 344 0.0 0.0 0.00 0.00 0.00 35 1013.2
20260503193307 15 221 0.0 0.0 0.00 0.00 0.00 34 1013.4
20260503193302 15 260 0.0 0.0 0.00 0.00 0.00 37 1013.3
20260503192301 15 26 0.0 0.0 0.00 0.00 0.00 33 1013.5
20260503191801 15 290 0.0 0.0 0.00 0.00 0.00 35 1013.6
20260503191301 15 301 0.0 0.0 0.00 0.00 0.00 34 1013.7
20260503190801 15 245 0.0 0.0 0.00 0.00 0.00 35 1013.7
20260503190300 15 265 0.0 0.0 0.00 0.00 0.00 34 1013.7
20260503185801 15 270 0.0 0.0 0.00 0.00 0.00 36 1013.8
20260503185301 15 249 0.0 0.0 0.00 0.00 0.00 39 1013.7
20260503184800 15 262 0.0 0.0 0.00 0.00 0.00 37 1013.8
20260503184303 15 199 0.0 0.0 0.00 0.00 0.00 38 1014.0
20260503184259 15 255 0.0 0.0 0.00 0.00 0.00 36 1013.9
20260503183258 14 279 0.0 0.0 0.00 0.00 0.00 36 1014.0
20260503182759 14 15 0.0 0.0 0.00 0.00 0.00 34 1014.1
20260503182305 14 54 0.0 0.0 0.00 0.00 0.00 39 1014.2
20260503182259 14 12 0.0 0.0 0.00 0.00 0.00 39 1014.2
20260503181259 14 242 0.0 0.0 0.00 0.00 0.00 40 1014.2
20260503180758 14 24 0.0 0.0 0.00 0.00 0.00 43 1014.1
20260503180308 13 325 0.0 4.8 0.00 0.00 0.00 42 1014.4
20260503180259 13 259 0.0 4.8 0.00 0.00 0.00 39 1014.3
20260503175259 13 24 0.0 0.0 0.00 0.00 0.00 37 1014.3
20260503174759 13 5 0.0 0.0 0.00 0.00 0.00 40 1014.4
20260503174258 13 22 0.0 0.0 0.00 0.00 0.00 40 1014.5
20260503173802 12 346 0.0 1.6 0.00 0.00 0.00 40 1014.6
20260503173758 13 281 0.0 1.6 0.00 0.00 0.00 43 1014.4
20260503172758 13 31 0.0 1.6 0.00 0.00 0.00 39 1014.6
20260503172259 13 251 0.0 1.6 0.00 0.00 0.00 38 1014.6
20260503171802 13 259 0.0 0.0 0.00 0.00 0.00 42 1014.6
20260503171758 13 309 0.0 1.6 0.00 0.00 0.00 43 1014.7
20260503170803 12 20 0.0 1.6 0.00 0.00 0.00 44 1014.7
20260503170759 13 294 0.0 0.0 0.00 0.00 0.00 44 1014.5
20260503170400 12 294 0.0 1.6 0.00 0.00 0.00 41 1014.6
20260503150746 10 5 0.0 1.6 0.00 0.00 0.00 49 1015.9
20260503150246 10 313 0.0 1.6 0.00 0.00 0.00 50 1015.8